QPF
0.01 0.03 0.08 0.06 0.02 0.00 0.00 0.00 0.00 0.02 0.04 0.03 0.01 0.01 0.00 0.00 0.00 0.00 0.00 0.00 0.01 0.01 0.02 0.01 0.01 0.01 0.01 0.01 0.00 0.00 0.00 0.00 0.00 0.00 0.00 0.00 0.01 0.01 0.00 0.00 0.01 0.01 0.01
0.01 0.03 0.05 0.04 0.02 0.00 0.00 0.01 0.01 0.02 0.02 0.01 0.01 0.01 0.00 0.00 0.00 0.00 0.01 0.01 0.01 0.01 0.01 0.01 0.01 0.01 0.01 0.01 0.00 0.00 0.00 0.00 0.00 0.00 0.00 0.00 0.00 0.00 0.00 0.00 0.00 0.00 0.00
0.00 0.01 0.02 0.02 0.02 0.00 0.00 0.00 0.01 0.01 0.01 0.01 0.01 0.01 0.00 0.00 0.00 0.01 0.01 0.01 0.01 0.02 0.02 0.02 0.02 0.01 0.01 0.00 0.00 0.00 0.00 0.00 0.00 0.00 0.00 0.00 0.00 0.00 0.00 0.00 0.00 0.00 0.00
0.00 0.01 0.01 0.01 0.01 0.00 0.00 0.00 0.00 0.00 0.00 0.00 0.00 0.00 0.00 0.00 0.00 0.01 0.01 0.01 0.01 0.00 0.00 0.00 0.00 0.00 0.00 0.00 0.00 0.00 0.00 0.00 0.00 0.00 0.00 0.00 0.00 0.00 0.00 0.00 0.00 0.00 0.00
0.01 0.01 0.01 0.01 0.01 0.00 0.00 0.00 0.00 0.00 0.00 0.00 0.00 0.00 0.00 0.00 0.00 0.00 0.00 0.00 0.00 0.00 0.00 0.00 0.00 0.00 0.00 0.00 0.00 0.00 0.00 0.00 0.00 0.00 0.00 0.00 0.00 0.00 0.00 0.01 0.00 0.00 0.00
0.01 0.02 0.02 0.01 0.01 0.00 0.00 0.00 0.00 0.00 0.00 0.00 0.00 0.00 0.00 0.00 0.00 0.00 0.00 0.00 0.00 0.00 0.00 0.00 0.00 0.00 0.00 0.00 0.00 0.00 0.00 0.00 0.00 0.00 0.00 0.00 0.00 0.00 0.00 0.01 0.01 0.01 0.00
0.01 0.01 0.02 0.01 0.00 0.00 0.00 0.00 0.00 0.00 0.00 0.00 0.00 0.00 0.00 0.00 0.00 0.00 0.00 0.00 0.00 0.00 0.00 0.00 0.00 0.00 0.00 0.00 0.00 0.00 0.00 0.00 0.00 0.00 0.00 0.00 0.00 0.01 0.01 0.01 0.02 0.02 0.01
0.01 0.01 0.01 0.00 0.00 0.00 0.00 0.00 0.00 0.00 0.00 0.00 0.00 0.00 0.00 0.00 0.00 0.00 0.00 0.00 0.00 0.00 0.00 0.00 0.00 0.00 0.00 0.00 0.00 0.00 0.00 0.00 0.00 0.00 0.00 0.00 0.00 0.01 0.01 0.01 0.01 0.02 0.01
0.03 0.02 0.01 0.00 0.00 0.00 0.00 0.00 0.00 0.00 0.00 0.00 0.00 0.00 0.00 0.00 0.00 0.00 0.00 0.00 0.00 0.00 0.00 0.00 0.00 0.00 0.00 0.00 0.00 0.00 0.00 0.00 0.00 0.00 0.00 0.00 0.00 0.00 0.00 0.00 0.01 0.02 0.03
0.05 0.04 0.02 0.01 0.00 0.00 0.00 0.00 0.00 0.00 0.00 0.00 0.00 0.00 0.00 0.00 0.00 0.00 0.00 0.00 0.00 0.00 0.00 0.00 0.00 0.00 0.00 0.00 0.00 0.00 0.00 0.00 0.00 0.00 0.00 0.00 0.00 0.00 0.00 0.00 0.00 0.01 0.03
0.08 0.07 0.05 0.01 0.00 0.00 0.00 0.01 0.01 0.00 0.00 0.00 0.00 0.00 0.00 0.00 0.00 0.00 0.00 0.00 0.00 0.00 0.00 0.00 0.00 0.00 0.00 0.00 0.00 0.00 0.00 0.00 0.00 0.00 0.00 0.00 0.00 0.00 0.00 0.00 0.00 0.01 0.02
0.08 0.07 0.06 0.03 0.04 0.04 0.04 0.02 0.01 0.00 0.00 0.00 0.00 0.00 0.00 0.00 0.00 0.00 0.00 0.00 0.00 0.00 0.00 0.00 0.00 0.00 0.00 0.00 0.00 0.00 0.00 0.00 0.00 0.00 0.00 0.00 0.00 0.00 0.00 0.00 0.01 0.01 0.01
0.07 0.05 0.05 0.06 0.07 0.05 0.02 0.01 0.00 0.00 0.00 0.00 0.00 0.00 0.00 0.00 0.00 0.00 0.00 0.00 0.00 0.00 0.00 0.00 0.00 0.00 0.00 0.00 0.00 0.00 0.00 0.00 0.00 0.00 0.00 0.00 0.00 0.00 0.01 0.02 0.03 0.02 0.03
0.07 0.08 0.07 0.07 0.06 0.04 0.01 0.00 0.00 0.00 0.00 0.00 0.00 0.00 0.00 0.00 0.00 0.00 0.00 0.00 0.00 0.00 0.00 0.00 0.00 0.00 0.00 0.00 0.00 0.00 0.00 0.00 0.00 0.00 0.00 0.00 0.00 0.01 0.02 0.04 0.04 0.04 0.03
0.10 0.11 0.10 0.08 0.06 0.02 0.00 0.00 0.00 0.00 0.00 0.00 0.00 0.00 0.00 0.00 0.00 0.00 0.00 0.00 0.00 0.00 0.00 0.00 0.00 0.00 0.00 0.00 0.00 0.00 0.00 0.00 0.00 0.00 0.00 0.00 0.00 0.01 0.04 0.04 0.04 0.03 0.02
0.10 0.09 0.07 0.04 0.02 0.00 0.00 0.00 0.00 0.00 0.00 0.00 0.00 0.00 0.00 0.00 0.00 0.00 0.00 0.00 0.00 0.00 0.00 0.00 0.00 0.00 0.00 0.00 0.00 0.00 0.00 0.00 0.00 0.00 0.00 0.00 0.00 0.01 0.03 0.03 0.02 0.02 0.01
0.05 0.04 0.02 0.01 0.00 0.00 0.00 0.00 0.00 0.00 0.00 0.00 0.00 0.00 0.00 0.00 0.00 0.00 0.00 0.00 0.00 0.00 0.00 0.00 0.00 0.00 0.00 0.00 0.00 0.00 0.00 0.00 0.00 0.00 0.00 0.00 0.00 0.01 0.01 0.00 0.00 0.00 0.01
0.03 0.01 0.01 0.00 0.00 0.00 0.00 0.00 0.00 0.00 0.00 0.00 0.00 0.00 0.00 0.00 0.00 0.00 0.00 0.00 0.00 0.00 0.00 0.00 0.00 0.00 0.00 0.00 0.00 0.00 0.00 0.00 0.00 0.00 0.00 0.00 0.00 0.00 0.00 0.00 0.00 0.00 0.02
0.02 0.01 0.00 0.00 0.00 0.00 0.00 0.00 0.00 0.00 0.00 0.00 0.00 0.00 0.00 0.00 0.00 0.00 0.00 0.00 0.00 0.00 0.00 0.00 0.00 0.00 0.00 0.00 0.00 0.00 0.00 0.00 0.00 0.00 0.00 0.00 0.00 0.00 0.01 0.01 0.00 0.01 0.03
0.04 0.02 0.00 0.00 0.00 0.00 0.00 0.00 0.00 0.00 0.00 0.00 0.00 0.00 0.00 0.00 0.00 0.00 0.00 0.00 0.00 0.00 0.00 0.00 0.00 0.00 0.00 0.00 0.00 0.00 0.00 0.00 0.00 0.00 0.00 0.00 0.01 0.01 0.02 0.01 0.01 0.03 0.07
0.06 0.02 0.00 0.00 0.00 0.00 0.00 0.00 0.00 0.00 0.00 0.00 0.00 0.00 0.00 0.00 0.00 0.00 0.00 0.00 0.00 0.00 0.00 0.00 0.00 0.00 0.00 0.00 0.00 0.00 0.00 0.01 0.01 0.00 0.00 0.01 0.01 0.02 0.02 0.01 0.02 0.06 0.11
0.02 0.00 0.00 0.00 0.00 0.00 0.00 0.00 0.00 0.00 0.00 0.00 0.00 0.00 0.00 0.00 0.00 0.00 0.00 0.00 0.00 0.00 0.00 0.00 0.00 0.00 0.00 0.00 0.00 0.01 0.01 0.01 0.01 0.01 0.01 0.02 0.03 0.03 0.02 0.02 0.05 0.10 0.14
0.00 0.00 0.00 0.00 0.00 0.00 0.00 0.00 0.00 0.00 0.00 0.00 0.00 0.00 0.00 0.00 0.00 0.00 0.00 0.00 0.00 0.00 0.00 0.00 0.00 0.00 0.00 0.00 0.01 0.01 0.01 0.02 0.03 0.04 0.06 0.05 0.03 0.02 0.02 0.05 0.10 0.14 0.16
0.00 0.00 0.00 0.00 0.00 0.00 0.00 0.00 0.00 0.00 0.00 0.00 0.00 0.00 0.00 0.00 0.00 0.00 0.00 0.00 0.00 0.00 0.00 0.00 0.00 0.00 0.00 0.01 0.02 0.01 0.01 0.02 0.04 0.06 0.07 0.06 0.05 0.05 0.07 0.11 0.14 0.15 0.16
0.00 0.00 0.00 0.00 0.00 0.00 0.00 0.00 0.00 0.00 0.00 0.00 0.00 0.00 0.00 0.00 0.00 0.00 0.00 0.00 0.00 0.00 0.01 0.01 0.00 0.01 0.01 0.02 0.04 0.04 0.04 0.04 0.06 0.06 0.04 0.04 0.04 0.06 0.10 0.14 0.16 0.14 0.13
0.00 0.00 0.00 0.00 0.00 0.00 0.00 0.00 0.00 0.00 0.00 0.00 0.00 0.00 0.00 0.00 0.00 0.00 0.00 0.00 0.00 0.00 0.01 0.01 0.01 0.01 0.01 0.02 0.03 0.04 0.05 0.06 0.06 0.04 0.04 0.05 0.07 0.10 0.13 0.15 0.16 0.14 0.13
MSLP
1014.41 1014.85 1015.23 1015.51 1015.66 1015.73 1015.74 1015.74 1015.80 1015.94 1016.18 1016.49 1016.86 1017.25 1017.61 1017.91 1018.13 1018.28 1018.38 1018.44 1018.50 1018.57 1018.65 1018.75 1018.85 1018.94 1018.98 1018.97 1018.90 1018.78 1018.62 1018.44 1018.25 1018.08 1017.91 1017.77 1017.65 1017.52 1017.39 1017.24 1017.06 1016.86 1016.63
1014.73 1015.21 1015.61 1015.89 1016.03 1016.07 1016.05 1016.04 1016.10 1016.25 1016.53 1016.89 1017.32 1017.75 1018.14 1018.45 1018.67 1018.80 1018.88 1018.92 1018.97 1019.04 1019.14 1019.25 1019.36 1019.45 1019.47 1019.44 1019.33 1019.17 1018.96 1018.74 1018.53 1018.34 1018.17 1018.02 1017.87 1017.71 1017.53 1017.32 1017.07 1016.79 1016.50
1014.88 1015.43 1015.90 1016.22 1016.40 1016.46 1016.45 1016.45 1016.53 1016.71 1017.02 1017.43 1017.90 1018.36 1018.77 1019.08 1019.29 1019.41 1019.46 1019.48 1019.51 1019.56 1019.65 1019.76 1019.86 1019.93 1019.94 1019.88 1019.74 1019.55 1019.33 1019.09 1018.87 1018.67 1018.50 1018.33 1018.16 1017.95 1017.70 1017.41 1017.07 1016.70 1016.32
1014.89 1015.55 1016.12 1016.54 1016.79 1016.91 1016.95 1017.00 1017.11 1017.33 1017.67 1018.10 1018.59 1019.06 1019.47 1019.78 1019.97 1020.06 1020.08 1020.07 1020.07 1020.10 1020.16 1020.24 1020.32 1020.36 1020.34 1020.26 1020.11 1019.91 1019.68 1019.46 1019.24 1019.06 1018.88 1018.70 1018.49 1018.23 1017.90 1017.50 1017.06 1016.59 1016.12
1014.80 1015.60 1016.31 1016.85 1017.22 1017.44 1017.56 1017.66 1017.81 1018.06 1018.42 1018.86 1019.35 1019.82 1020.21 1020.50 1020.66 1020.72 1020.70 1020.65 1020.60 1020.58 1020.60 1020.64 1020.67 1020.68 1020.64 1020.54 1020.39 1020.20 1019.99 1019.79 1019.60 1019.43 1019.26 1019.06 1018.81 1018.48 1018.07 1017.58 1017.04 1016.47 1015.92
1014.68 1015.63 1016.48 1017.18 1017.69 1018.02 1018.23 1018.40 1018.59 1018.86 1019.21 1019.64 1020.10 1020.54 1020.90 1021.15 1021.27 1021.29 1021.23 1021.14 1021.04 1020.97 1020.93 1020.92 1020.90 1020.88 1020.81 1020.70 1020.55 1020.38 1020.20 1020.03 1019.88 1019.72 1019.55 1019.34 1019.05 1018.66 1018.18 1017.60 1016.97 1016.32 1015.69
1014.58 1015.66 1016.66 1017.50 1018.15 1018.60 1018.90 1019.13 1019.35 1019.62 1019.96 1020.35 1020.77 1021.15 1021.46 1021.66 1021.75 1021.72 1021.62 1021.48 1021.34 1021.21 1021.11 1021.04 1020.98 1020.91 1020.82 1020.71 1020.57 1020.42 1020.28 1020.14 1020.01 1019.87 1019.70 1019.46 1019.14 1018.71 1018.16 1017.53 1016.83 1016.13 1015.45
1014.53 1015.71 1016.84 1017.81 1018.57 1019.12 1019.50 1019.78 1020.02 1020.28 1020.58 1020.92 1021.27 1021.59 1021.83 1021.98 1022.02 1021.96 1021.82 1021.64 1021.45 1021.28 1021.13 1021.00 1020.90 1020.79 1020.69 1020.56 1020.44 1020.31 1020.19 1020.07 1019.96 1019.83 1019.65 1019.39 1019.04 1018.57 1017.99 1017.32 1016.60 1015.87 1015.17
1014.52 1015.79 1017.01 1018.06 1018.91 1019.54 1019.98 1020.29 1020.54 1020.77 1021.02 1021.29 1021.57 1021.81 1021.99 1022.08 1022.07 1021.97 1021.80 1021.59 1021.37 1021.16 1020.98 1020.82 1020.67 1020.54 1020.42 1020.29 1020.17 1020.05 1019.94 1019.84 1019.73 1019.59 1019.39 1019.11 1018.74 1018.25 1017.66 1016.99 1016.27 1015.54 1014.84
1014.58 1015.89 1017.15 1018.26 1019.16 1019.83 1020.31 1020.63 1020.87 1021.07 1021.26 1021.46 1021.66 1021.82 1021.93 1021.97 1021.92 1021.79 1021.60 1021.37 1021.14 1020.90 1020.70 1020.51 1020.34 1020.20 1020.06 1019.93 1019.81 1019.69 1019.58 1019.47 1019.34 1019.18 1018.96 1018.66 1018.26 1017.77 1017.18 1016.53 1015.84 1015.14 1014.47
1014.68 1016.00 1017.27 1018.39 1019.30 1019.99 1020.48 1020.81 1021.03 1021.19 1021.33 1021.45 1021.57 1021.66 1021.71 1021.69 1021.60 1021.45 1021.25 1021.02 1020.78 1020.55 1020.34 1020.15 1019.98 1019.82 1019.67 1019.54 1019.41 1019.28 1019.16 1019.02 1018.86 1018.67 1018.42 1018.09 1017.68 1017.18 1016.61 1015.99 1015.33 1014.67 1014.04
1014.84 1016.14 1017.39 1018.48 1019.38 1020.06 1020.54 1020.86 1021.05 1021.18 1021.27 1021.33 1021.38 1021.40 1021.39 1021.33 1021.21 1021.04 1020.84 1020.62 1020.40 1020.18 1019.98 1019.79 1019.62 1019.47 1019.32 1019.18 1019.03 1018.88 1018.73 1018.56 1018.36 1018.12 1017.83 1017.48 1017.05 1016.55 1016.00 1015.40 1014.78 1014.15 1013.54
1015.07 1016.33 1017.52 1018.57 1019.42 1020.08 1020.54 1020.83 1021.01 1021.10 1021.14 1021.16 1021.15 1021.12 1021.05 1020.95 1020.81 1020.64 1020.45 1020.24 1020.04 1019.85 1019.67 1019.50 1019.34 1019.19 1019.04 1018.88 1018.71 1018.54 1018.34 1018.13 1017.88 1017.60 1017.26 1016.88 1016.43 1015.93 1015.38 1014.79 1014.19 1013.58 1012.98
1015.36 1016.57 1017.69 1018.67 1019.46 1020.07 1020.50 1020.78 1020.93 1021.00 1021.02 1020.99 1020.94 1020.86 1020.75 1020.62 1020.47 1020.30 1020.12 1019.94 1019.77 1019.60 1019.45 1019.30 1019.16 1019.00 1018.84 1018.66 1018.47 1018.25 1018.01 1017.74 1017.45 1017.11 1016.74 1016.31 1015.84 1015.32 1014.76 1014.18 1013.57 1012.95 1012.34
1015.73 1016.86 1017.90 1018.79 1019.52 1020.08 1020.47 1020.72 1020.86 1020.91 1020.90 1020.86 1020.77 1020.66 1020.53 1020.39 1020.23 1020.06 1019.90 1019.74 1019.60 1019.47 1019.34 1019.21 1019.07 1018.91 1018.73 1018.52 1018.28 1018.02 1017.72 1017.40 1017.05 1016.66 1016.24 1015.78 1015.27 1014.73 1014.15 1013.55 1012.91 1012.27 1011.63
1016.17 1017.21 1018.15 1018.95 1019.60 1020.09 1020.45 1020.67 1020.80 1020.84 1020.82 1020.76 1020.66 1020.54 1020.40 1020.25 1020.10 1019.94 1019.80 1019.67 1019.56 1019.45 1019.33 1019.21 1019.06 1018.88 1018.67 1018.42 1018.13 1017.80 1017.45 1017.06 1016.65 1016.21 1015.74 1015.24 1014.71 1014.14 1013.53 1012.90 1012.23 1011.55 1010.87
1016.64 1017.58 1018.41 1019.11 1019.68 1020.11 1020.42 1020.63 1020.74 1020.78 1020.77 1020.71 1020.61 1020.49 1020.35 1020.21 1020.07 1019.94 1019.82 1019.72 1019.62 1019.53 1019.42 1019.29 1019.12 1018.91 1018.65 1018.33 1017.98 1017.58 1017.15 1016.70 1016.22 1015.73 1015.21 1014.67 1014.11 1013.51 1012.88 1012.22 1011.52 1010.81 1010.09
1017.12 1017.95 1018.67 1019.27 1019.75 1020.12 1020.39 1020.58 1020.69 1020.74 1020.73 1020.68 1020.60 1020.50 1020.38 1020.26 1020.15 1020.04 1019.95 1019.87 1019.79 1019.70 1019.58 1019.43 1019.22 1018.96 1018.63 1018.25 1017.81 1017.33 1016.82 1016.29 1015.75 1015.19 1014.63 1014.06 1013.46 1012.85 1012.20 1011.52 1010.81 1010.09 1009.36
1017.58 1018.30 1018.90 1019.40 1019.80 1020.11 1020.35 1020.52 1020.63 1020.69 1020.71 1020.69 1020.64 1020.57 1020.49 1020.40 1020.32 1020.25 1020.18 1020.11 1020.04 1019.94 1019.81 1019.61 1019.35 1019.02 1018.62 1018.15 1017.63 1017.06 1016.46 1015.85 1015.24 1014.62 1014.01 1013.40 1012.78 1012.15 1011.50 1010.83 1010.14 1009.44 1008.74
1018.01 1018.61 1019.11 1019.51 1019.84 1020.10 1020.30 1020.46 1020.58 1020.66 1020.71 1020.73 1020.73 1020.70 1020.66 1020.62 1020.57 1020.53 1020.49 1020.43 1020.35 1020.24 1020.07 1019.83 1019.51 1019.11 1018.62 1018.07 1017.46 1016.80 1016.11 1015.42 1014.73 1014.05 1013.39 1012.74 1012.11 1011.47 1010.84 1010.20 1009.56 1008.91 1008.29
1018.40 1018.89 1019.29 1019.62 1019.88 1020.10 1020.28 1020.44 1020.57 1020.68 1020.77 1020.83 1020.87 1020.90 1020.91 1020.91 1020.90 1020.89 1020.86 1020.80 1020.71 1020.57 1020.35 1020.06 1019.68 1019.21 1018.65 1018.01 1017.32 1016.58 1015.81 1015.04 1014.28 1013.54 1012.83 1012.15 1011.49 1010.87 1010.26 1009.67 1009.10 1008.55 1008.03
1018.75 1019.15 1019.47 1019.73 1019.94 1020.13 1020.30 1020.46 1020.61 1020.76 1020.89 1021.00 1021.10 1021.18 1021.24 1021.28 1021.30 1021.30 1021.27 1021.20 1021.08 1020.90 1020.64 1020.29 1019.85 1019.31 1018.69 1017.99 1017.23 1016.43 1015.60 1014.76 1013.94 1013.15 1012.39 1011.67 1011.01 1010.39 1009.82 1009.30 1008.82 1008.38 1007.99
1019.08 1019.41 1019.66 1019.87 1020.05 1020.21 1020.38 1020.55 1020.73 1020.91 1021.08 1021.25 1021.40 1021.52 1021.63 1021.70 1021.74 1021.74 1021.70 1021.60 1021.45 1021.21 1020.90 1020.50 1020.00 1019.42 1018.75 1018.01 1017.21 1016.36 1015.49 1014.62 1013.75 1012.91 1012.12 1011.38 1010.70 1010.10 1009.57 1009.11 1008.73 1008.42 1008.17
1019.40 1019.67 1019.87 1020.04 1020.20 1020.36 1020.53 1020.71 1020.92 1021.14 1021.36 1021.57 1021.76 1021.93 1022.06 1022.15 1022.19 1022.18 1022.11 1021.97 1021.76 1021.47 1021.10 1020.64 1020.10 1019.49 1018.80 1018.04 1017.23 1016.38 1015.50 1014.61 1013.73 1012.87 1012.06 1011.30 1010.62 1010.03 1009.54 1009.15 1008.85 1008.65 1008.53
1019.73 1019.94 1020.11 1020.26 1020.40 1020.55 1020.73 1020.94 1021.18 1021.43 1021.69 1021.94 1022.16 1022.36 1022.50 1022.60 1022.62 1022.58 1022.46 1022.27 1021.99 1021.64 1021.22 1020.72 1020.15 1019.51 1018.82 1018.08 1017.29 1016.47 1015.61 1014.74 1013.87 1013.02 1012.21 1011.45 1010.78 1010.20 1009.74 1009.40 1009.18 1009.07 1009.05
1020.05 1020.23 1020.37 1020.50 1020.63 1020.79 1020.99 1021.22 1021.48 1021.76 1022.05 1022.33 1022.58 1022.79 1022.94 1023.02 1023.01 1022.92 1022.75 1022.49 1022.15 1021.74 1021.26 1020.72 1020.13 1019.50 1018.83 1018.12 1017.38 1016.61 1015.82 1015.00 1014.17 1013.36 1012.57 1011.83 1011.17 1010.62 1010.18 1009.87 1009.70 1009.65 1009.70
Thickness
5729 5723 5717 5716 5715 5713 5711 5708 5706 5704 5702 5696 5689 5682 5673 5667 5663 5658 5653 5648 5644 5640 5637 5633 5628 5623 5619 5614 5610 5606 5600 5596 5593 5589 5587 5584 5580 5576 5573 5570 5566 5564 5561
5721 5715 5710 5708 5707 5705 5704 5701 5698 5695 5693 5689 5682 5673 5665 5657 5651 5645 5640 5636 5632 5628 5623 5617 5611 5606 5601 5596 5592 5588 5582 5578 5575 5570 5568 5566 5565 5563 5563 5559 5555 5552 5548
5715 5709 5704 5701 5698 5695 5693 5689 5685 5682 5678 5674 5669 5662 5654 5647 5639 5632 5626 5622 5618 5613 5607 5601 5595 5590 5585 5580 5575 5570 5565 5559 5556 5553 5549 5548 5548 5549 5550 5548 5544 5540 5536
5709 5704 5699 5694 5689 5685 5681 5675 5670 5667 5663 5660 5656 5649 5642 5633 5624 5618 5613 5609 5605 5599 5592 5586 5580 5574 5568 5563 5558 5552 5546 5541 5538 5536 5534 5533 5532 5530 5534 5535 5532 5528 5525
5706 5699 5693 5688 5682 5677 5671 5664 5659 5654 5650 5645 5640 5633 5625 5617 5610 5605 5600 5594 5588 5582 5576 5571 5565 5558 5552 5545 5539 5534 5528 5524 5521 5520 5520 5519 5517 5515 5512 5517 5518 5515 5512
5700 5692 5685 5679 5672 5665 5658 5650 5644 5637 5632 5627 5621 5615 5608 5602 5597 5591 5585 5578 5571 5565 5560 5556 5550 5543 5536 5529 5523 5518 5515 5511 5509 5507 5505 5503 5502 5501 5499 5502 5504 5503 5502
5691 5684 5677 5669 5660 5652 5643 5635 5628 5620 5615 5611 5606 5601 5595 5590 5583 5578 5572 5564 5557 5551 5546 5541 5535 5528 5521 5515 5510 5506 5504 5500 5497 5495 5492 5489 5488 5488 5488 5487 5489 5490 5491
5682 5674 5666 5657 5648 5638 5630 5622 5615 5608 5602 5597 5592 5587 5582 5577 5571 5566 5560 5554 5546 5540 5534 5528 5522 5515 5508 5504 5501 5497 5494 5490 5487 5485 5481 5478 5477 5476 5473 5471 5472 5476 5479
5668 5661 5653 5645 5636 5627 5617 5609 5601 5594 5589 5585 5580 5575 5570 5565 5559 5553 5548 5543 5538 5531 5524 5517 5510 5503 5498 5494 5491 5488 5485 5481 5478 5474 5470 5467 5465 5462 5459 5457 5455 5456 5462
5654 5648 5641 5633 5626 5616 5605 5597 5589 5583 5578 5575 5572 5567 5563 5558 5550 5543 5539 5535 5530 5522 5514 5507 5501 5495 5489 5485 5482 5479 5476 5471 5468 5463 5458 5455 5452 5448 5446 5444 5442 5442 5445
5646 5640 5632 5625 5617 5609 5601 5593 5583 5575 5571 5568 5565 5561 5557 5552 5544 5537 5531 5526 5519 5511 5504 5499 5493 5486 5480 5476 5472 5468 5464 5460 5455 5449 5445 5442 5438 5435 5434 5433 5432 5432 5432
5640 5632 5622 5614 5605 5599 5591 5584 5577 5572 5567 5560 5555 5551 5547 5542 5535 5528 5522 5515 5508 5501 5494 5489 5484 5478 5473 5468 5463 5459 5454 5448 5441 5435 5430 5427 5425 5423 5422 5423 5424 5425 5425
5630 5621 5611 5602 5594 5585 5576 5570 5565 5561 5556 5550 5543 5539 5534 5529 5522 5515 5510 5503 5497 5490 5484 5480 5476 5472 5466 5460 5454 5448 5442 5434 5427 5420 5416 5414 5412 5413 5413 5414 5417 5420 5421
5623 5612 5601 5591 5582 5573 5565 5559 5554 5550 5546 5539 5532 5526 5521 5516 5510 5505 5499 5493 5488 5481 5476 5471 5467 5463 5457 5450 5444 5436 5428 5419 5412 5406 5403 5402 5402 5403 5405 5409 5413 5416 5416
5615 5603 5590 5579 5571 5564 5557 5551 5545 5540 5534 5527 5521 5516 5511 5506 5502 5498 5493 5487 5481 5474 5467 5461 5456 5452 5445 5439 5431 5422 5413 5405 5399 5395 5393 5392 5394 5397 5400 5404 5408 5410 5411
5605 5593 5580 5570 5563 5557 5549 5542 5535 5529 5522 5517 5513 5508 5503 5498 5495 5492 5486 5480 5473 5465 5457 5451 5446 5440 5432 5423 5415 5407 5399 5393 5390 5389 5388 5386 5387 5391 5395 5399 5403 5405 5407
5596 5583 5571 5562 5554 5547 5539 5531 5525 5518 5513 5510 5506 5501 5495 5491 5489 5486 5480 5473 5465 5455 5446 5438 5432 5425 5417 5409 5402 5395 5389 5385 5383 5382 5381 5381 5383 5385 5389 5396 5401 5404 5408
5584 5571 5560 5551 5542 5535 5528 5521 5515 5510 5506 5502 5497 5492 5488 5486 5482 5476 5468 5460 5450 5439 5430 5424 5418 5410 5404 5397 5391 5386 5381 5379 5378 5378 5378 5378 5381 5385 5390 5395 5400 5406 5411
5566 5556 5548 5538 5529 5523 5518 5513 5508 5503 5499 5495 5490 5486 5482 5477 5470 5462 5452 5442 5433 5424 5417 5410 5404 5397 5391 5386 5382 5379 5377 5377 5378 5379 5379 5380 5383 5387 5390 5395 5401 5408 5416
5548 5540 5532 5525 5519 5514 5510 5506 5501 5497 5493 5488 5483 5478 5472 5464 5455 5446 5436 5427 5419 5411 5405 5398 5392 5386 5381 5378 5375 5374 5373 5374 5376 5377 5380 5382 5384 5387 5390 5395 5401 5409 5418
5535 5528 5522 5516 5511 5507 5503 5500 5496 5491 5485 5480 5474 5466 5459 5450 5441 5431 5422 5414 5407 5399 5392 5386 5381 5377 5375 5373 5372 5371 5370 5369 5371 5374 5378 5381 5384 5386 5390 5395 5401 5409 5417
5523 5518 5512 5509 5505 5502 5499 5495 5489 5483 5478 5471 5463 5455 5447 5439 5429 5420 5411 5403 5395 5388 5382 5377 5374 5372 5370 5370 5369 5368 5367 5366 5368 5372 5376 5380 5383 5387 5392 5398 5406 5414 5422
5515 5510 5507 5504 5500 5496 5492 5487 5480 5475 5469 5461 5453 5445 5436 5426 5418 5410 5402 5394 5387 5381 5377 5373 5369 5367 5366 5366 5366 5366 5365 5366 5368 5370 5374 5379 5383 5389 5395 5402 5411 5419 5425
5507 5505 5503 5499 5495 5491 5485 5479 5474 5468 5461 5452 5443 5434 5425 5416 5409 5402 5395 5387 5381 5376 5371 5366 5363 5361 5361 5361 5362 5363 5365 5367 5369 5371 5375 5380 5385 5391 5398 5406 5414 5420 5423
5500 5499 5496 5493 5489 5483 5478 5474 5468 5462 5452 5443 5434 5424 5416 5408 5401 5394 5387 5381 5375 5369 5363 5359 5355 5355 5356 5356 5356 5358 5362 5365 5367 5370 5376 5382 5386 5392 5399 5407 5413 5418 5421
5494 5493 5490 5486 5481 5476 5472 5468 5461 5454 5445 5435 5426 5417 5409 5400 5393 5386 5381 5376 5370 5364 5358 5353 5351 5352 5352 5354 5357 5360 5363 5366 5368 5372 5377 5381 5386 5392 5399 5406 5412 5416 5419